Location: Strawberry
(33.0916°N, 80.0306°W)
Time: 06:51:05
(UTC+00:00)

Tiangong - Visible Passes

Search period start: 09 December 2022 00:00
Search period end: 19 December 2022 00:00
Orbit: 386 x 392 km, 41.5° (Epoch: 08 December)

Date Brightness Start Highest point End Pass type
(mag) Time Alt. Az. Time Alt. Az. Time Alt. Az.
10 Dec 0.0 00:12:16 10° WNW 00:13:44 25° WNW 00:13:44 25° WNW visible
10 Dec -2.0 23:14:02 10° NW 23:17:10 55° NNE 23:18:48 24° E visible
11 Dec -0.7 23:52:44 10° WNW 23:55:42 36° SW 23:56:25 31° S visible
12 Dec -1.9 22:54:13 10° WNW 22:57:23 73° SSW 23:00:33 10° SE visible
13 Dec 0.8 23:33:29 10° W 23:35:40 17° SW 23:37:51 10° S visible
